[[{"header":{"parameterUnit":"m.s-1","parameterCategory":1,"la1":30.2992,"la2":30.254,"lo1":-89.0895,"lo2":-89.0443,"dy":0.0025,"dx":0.0025,"nx":19,"ny":19,"refTime":"2026-05-06T03:00:00:Z","depth":0,"parameterNumber":2,"parameterNumberName":"U-component_of_WINDS"},"data":[0,0,0,0.0127,0.0127,0.0123,0.0123,0.0121,0.0121,0,0,0,0,0,0,0,0,0,0,0,0.0131,0.0131,0.0127,0.0127,0.0123,0.0123,0.0121,0.0121,0,0,0,0,0,0,0,0,0,0,0,0.013,0.0131,0.0131,0.0127,0.0123,0.0123,0.0121,0.0123,0,0,0,0,0,0,0,0,0,0,0.0126,0.0132,0.0131,0.0131,0.0127,0.0123,0.0123,0.0123,0.0123,0.0124,0,0.0127,0,0.0124,0.0121,0.0121,0,0,0,0.0125,0.0132,0.0129,0.0131,0.0127,0.0123,0.0124,0.0123,0.0123,0.0124,0.0127,0.0127,0.0124,0.0121,0.0121,0.0138,0.0138,0,0,0.0125,0.0131,0.0129,0.0129,0.013,0.0124,0.0124,0.0123,0.0126,0.0127,0.0127,0.0124,0.0121,0.0121,0.0138,0.0138,0,0,0,0.0127,0.0131,0.0128,0.0129,0.0128,0.0124,0.0124,0.0126,0.0124,0.0127,0.0124,0.0121,0.0121,0.0138,0.0138,0.0153,0,0,0,0.0127,0.0132,0.0128,0.0132,0.0128,0.0127,0.0128,0.0124,0.0124,0.0124,0.0121,0.0121,0.0138,0.0138,0.0152,0.0158,0,0,0,0.013,0.0133,0.0133,0.0132,0.0131,0.0127,0.0125,0.0124,0.0123,0.0121,0.0121,0.0138,0.0138,0.0151,0.0157,0.0164,0,0,0,0.0135,0.0146,0.0134,0.0145,0.0131,0.0136,0.0125,0.0129,0.0129,0.0121,0.0138,0.0138,0.0151,0.0156,0.0163,0.0171,0.0175,0,0,0.0153,0.0149,0.0155,0.0144,0.0153,0.0136,0.0147,0.0142,0.0136,0.0138,0.0138,0.0152,0.0157,0.0164,0.0195,0.0198,0,0,0,0.0163,0.0168,0.0169,0.017,0.0166,0.0163,0.0155,0.0153,0.0154,0.0138,0.0156,0.0159,0.0163,0.0166,0.0169,0.0171,0.014,0.014,0.014,0.0197,0.0189,0.0199,0.019,0.0191,0.0183,0.0182,0.0178,0.0169,0.0174,0.0174,0.0194,0.0198,0.02,0.0202,0.0178,0.0178,0.0178,0.0178,0.0223,0.0228,0.0216,0.0221,0.0212,0.0216,0.0208,0.0201,0.0203,0.0193,0.0196,0.0185,0.0203,0.0205,0.0179,0.0179,0.0178,0.0178,0.0178,0.0244,0.0245,0.0242,0.0242,0.0242,0.0233,0.0235,0.0226,0.0219,0.0221,0.022,0.022,0.0218,0.0222,0.0222,0.0222,0.0222,0.0222,0.0222,0.0267,0.0264,0.0267,0.0263,0.0262,0.0259,0.025,0.0249,0.0245,0.0238,0.0238,0.0229,0.0207,0.0201,0.0223,0.0223,0.0223,0.0222,0.0222,0.0295,0.0288,0.0292,0.0291,0.0286,0.0286,0.0275,0.0273,0.027,0.0271,0.0261,0.0246,0.0241,0.0239,0.0234,0.0263,0.0263,0.0263,0.0263,0.0313,0.031,0.0312,0.0311,0.0309,0.0299,0.0303,0.0296,0.0287,0.0285,0.0279,0.0272,0.0271,0.0267,0.0264,0.0259,0.0294,0.0294,0.0294,0.0329,0.0325,0.0331,0.0323,0.0318,0.0313,0.0317,0.0315,0.0303,0.0295,0.0282,0.0281,0.027,0.0267,0.0259,0.0255,0.0246,0,0]},{"header":{"parameterUnit":"m.s-1","parameterCategory":1,"la1":30.2992,"la2":30.254,"lo1":-89.0895,"lo2":-89.0443,"dy":0.0025,"dx":0.0025,"nx":19,"ny":19,"refTime":"2026-05-06T03:00:00:Z","depth":0,"parameterNumber":3,"parameterNumberName":"V-component_of_WINDS"},"data":[0,0,0,4.7237,4.724,4.7376,4.7376,4.7553,4.7555,0,0,0,0,0,0,0,0,0,0,0,4.7204,4.7205,4.7237,4.724,4.7376,4.7377,4.7553,4.7555,0,0,0,0,0,0,0,0,0,0,0,4.7203,4.7205,4.7207,4.7241,4.7376,4.7377,4.7552,4.7448,0,0,0,0,0,0,0,0,0,0,4.7315,4.7292,4.7204,4.7207,4.7242,4.7376,4.7377,4.7443,4.7454,4.7495,0,4.7537,0,4.7549,4.7567,4.7568,0,0,0,4.7234,4.7282,4.7313,4.7207,4.7243,4.7376,4.7313,4.7449,4.7462,4.751,4.7539,4.7545,4.7552,4.7569,4.7569,4.7835,4.7836,0,0,4.7226,4.723,4.7304,4.7322,4.7307,4.7309,4.7317,4.7457,4.7487,4.754,4.7549,4.7555,4.757,4.7571,4.7833,4.7835,0,0,0,4.7209,4.7225,4.7253,4.7315,4.734,4.7313,4.7323,4.748,4.7489,4.7551,4.7557,4.7571,4.7573,4.7832,4.7834,4.7917,0,0,0,4.7204,4.7215,4.725,4.7254,4.7338,4.7413,4.7343,4.748,4.7495,4.7556,4.7571,4.7575,4.783,4.7833,4.7911,4.7954,0,0,0,4.7192,4.7214,4.7237,4.7254,4.7313,4.7411,4.7427,4.7483,4.7499,4.7568,4.7575,4.7829,4.7833,4.7906,4.7946,4.8026,0,0,0,4.7179,4.7305,4.7238,4.7381,4.7312,4.7462,4.7426,4.7537,4.7606,4.7572,4.783,4.7834,4.7904,4.794,4.8021,4.8096,4.8127,0,0,4.734,4.7325,4.7409,4.7352,4.7517,4.7441,4.7615,4.7672,4.7672,4.7779,4.7786,4.7913,4.7945,4.8025,4.8303,4.8328,0,0,0,4.7461,4.7521,4.7564,4.7632,4.7682,4.7726,4.7757,4.7777,4.7869,4.773,4.7963,4.7982,4.8029,4.8064,4.8086,4.8125,4.7851,4.785,4.785,4.7694,4.7692,4.783,4.7843,4.7909,4.794,4.7992,4.8024,4.7999,4.8054,4.8086,4.8256,4.8297,4.8313,4.8355,4.8125,4.8125,4.8125,4.8126,4.7931,4.8016,4.7982,4.8104,4.8098,4.8199,4.8232,4.8211,4.8301,4.8231,4.8272,4.8196,4.8342,4.8377,4.8132,4.8131,4.813,4.8129,4.8129,4.8084,4.8124,4.815,4.8249,4.8324,4.8331,4.8421,4.8411,4.8401,4.8442,4.8474,4.8473,4.847,4.8458,4.8459,4.8459,4.846,4.846,4.8461,4.8232,4.8259,4.8338,4.8402,4.8445,4.8499,4.8531,4.8571,4.8612,4.8597,4.8598,4.8566,4.8357,4.8305,4.847,4.8468,4.8467,4.8466,4.8466,4.8473,4.8418,4.854,4.8584,4.8657,4.8732,4.8719,4.8801,4.8832,4.8876,4.8837,4.8684,4.8665,4.8648,4.8605,4.8838,4.8838,4.8838,4.8838,4.8602,4.8593,4.8717,4.8787,4.8853,4.8855,4.8989,4.9014,4.903,4.9048,4.9013,4.8954,4.8937,4.8929,4.8906,4.8865,4.9159,4.9159,4.9159,4.875,4.8747,4.8866,4.8886,4.8943,4.899,4.9116,4.9194,4.9199,4.9172,4.9062,4.9048,4.8954,4.8924,4.8894,4.8858,4.8783,0,0]}]]